Regional Weather Roundup
Issued by NWS Cleveland, OH

Home | Current Version | Previous Version | Text Only | Print | Product List | Glossary Off
Versions: 1 2 3 4 5 6 7 8 9 10 11 12 13 14 15 16 17 18 19 20 21 22 23 24 25 26 27 28 29 30 31 32 33 34 35 36 37 38 39 40 41 42 43 44 45 46 47 48 49 50

000
ASUS41 KCLE 080310
RWRCLE
OHIO REGIONAL WEATHER ROUNDUP
NATIONAL WEATHER SERVICE CLEVELAND, OH
1100 PM EDT TUE JUL 07 2015

NOTE: "FAIR" INDICATES FEW OR NO CLOUDS BELOW 12,000 FEET WITH NO
SIGNIFICANT WEATHER AND/OR OBSTRUCTIONS TO VISIBILITY.

OHZ001>008-015>018-024>027-034-035-043-044-080400-
   NORTHWEST OHIO

CITY           SKY/WX    TMP DP  RH WIND       PRES   REMARKS
DEFIANCE       CLOUDY    66  58  75 N9        30.03R
FINDLAY        LGT RAIN  65  62  90 N14       30.01R FOG
TOLEDO EXPRESS CLOUDY    64  58  80 N9        30.03R
TOLEDO EXEC    CLOUDY    64  59  83 N9        30.03R
LIMA           CLOUDY    64  62  93 N8        30.02R FOG
$$

OHZ009>014-019>023-028>033-038-089-080400-
   NORTHEAST OHIO

CITY           SKY/WX    TMP DP  RH WIND       PRES   REMARKS
CLE-HOPKINS    LGT RAIN  63  61  93 N13       30.03R
CLE-LAKEFRONT  CLOUDY    64  61  90 N14       30.00R FOG
CUY CO. ARPT   DRIZZLE   64  63  94 NE9       30.01R FOG
LORAIN-ELYRIA  CLOUDY    62  61  96 NE10      30.02R
ASHTABULA      CLOUDY    62  62 100 NW6       30.00R FOG
AKRON-CANTON   LGT RAIN  71  68  90 S3        29.97R
WOOSTER        LGT RAIN  65  64  97 N15       29.99R
MANSFIELD      CLOUDY    64  64 100 N16G22    30.00R FOG
YOUNGSTOWN     CLOUDY    69  68  96 S3        29.98R
$$

OHZ042-051>053-060>062-070>072-077>081-080400-
  SOUTHWEST OHIO

CITY           SKY/WX    TMP DP  RH WIND       PRES   REMARKS
CINC-COVINGTON CLOUDY    70  68  93 NW12      30.02R
CINC-LUNKEN    CLOUDY    72  69  90 NW7       30.01R
HAMILTON       CLOUDY    69  67  93 NW9       30.03R
DAYTON         LGT RAIN  68  66  93 NW13      30.02R FOG
WRIGHT-PAT AFB CLOUDY    68  68 100 NW12      30.00R
DAYTON GENERAL CLOUDY    68  66  93 NW9       30.01R
WILMINGTON     CLOUDY    73  69  87 W16       29.99R
$$

OHZ036-037-039>041-045>050-054>059-063>069-073>076-082>088-080400-
  CENTRAL AND SOUTHEAST OHIO

CITY           SKY/WX    TMP DP  RH WIND       PRES   REMARKS
COLUMBUS       LGT RAIN  73  71  93 S3        29.96R
OSU AIRPORT    RAIN      72  70  93 NW6       29.97R FOG
BOLTON FIELD   CLOUDY    72  71  97 SW7       29.97R
RICKENBACK AFB CLOUDY    71  70  95 S6        29.96S
NEWARK         CLOUDY    73  70  90 SW3       29.97R
MARION         LGT RAIN  67  65  93 N12       29.99R FOG
LANCASTER      CLOUDY    73  69  87 S3        29.98R
ZANESVILLE     NOT AVBL
NEW PHILLY     HVY RAIN  72  71  97 VRB3      29.97S VSB 1
$$


USA.gov is the U.S. government's official web portal to all federal, state and local government web resources and services.